North Vernon, Indiana, United States (47265)
Lat: 39.01N, Lon: 85.62W
Wx Zone: INZ072
Local Info
Past Weather Observations for Friday, November 21, 2014

NOTE: This archive is for the closest National Weather Service station to North Vernon. Information may differ from the station used for current weather conditions.

Click here for Long-term Archive

Time Weather Temperature Dewpoint Humidity Pressure Winds Precip Visibility
23:53
Overcast
32°F / 0°C 16°F / -9°C 51% 30.33 in
(1027 mb)
SE 9.2 mph
(SE 15 kph)
- 10SM
22:53
Clear
28°F / -2°C 14°F / -10°C 55% 30.36 in
(1028 mb)
SSE 10.4 mph
(SSE 17 kph)
- 10SM
21:53
Clear
28°F / -2°C 12°F / -11°C 51% 30.36 in
(1028 mb)
SE 9.2 mph
(SE 15 kph)
- 10SM
20:53
Clear
27°F / -3°C 14°F / -10°C 59% 30.39 in
(1029 mb)
SE 9.2 mph
(SE 15 kph)
- 10SM
19:53
Clear
27°F / -3°C 14°F / -10°C 59% 30.39 in
(1029 mb)
SE 8.1 mph
(SE 13 kph)
- 10SM
18:53
Clear
28°F / -2°C 14°F / -10°C 55% 30.42 in
(1030 mb)
SE 6.9 mph
(SE 11 kph)
- 10SM
17:53
Clear
30°F / -1°C 12°F / -11°C 47% 30.42 in
(1030 mb)
SE 6.9 mph
(SE 11 kph)
- 10SM
16:53
Clear
34°F / 1°C 14°F / -10°C 44% 30.42 in
(1030 mb)
SE 10.4 mph
(SE 17 kph)
- 10SM
15:53
Clear
34°F / 1°C 12°F / -11°C 41% 30.42 in
(1030 mb)
SE 10.4 mph
(SE 17 kph)
- 10SM
14:53
Clear
34°F / 1°C 12°F / -11°C 41% 30.45 in
(1031 mb)
SSE 10.4 mph
(SSE 17 kph)
- 10SM
13:53
Clear
34°F / 1°C 12°F / -11°C 41% 30.45 in
(1031 mb)
SE 9.2 mph
(SE 15 kph)
- 10SM
12:53
Clear
30°F / -1°C 12°F / -11°C 47% 30.48 in
(1032 mb)
SE 6.9 mph
(SE 11 kph)
- 10SM
11:53
Clear
28°F / -2°C 12°F / -11°C 51% 30.51 in
(1033 mb)
SE 5.8 mph
(SE 9 kph)
- 10SM
10:53
Clear
27°F / -3°C 12°F / -11°C 54% 30.51 in
(1033 mb)
SE 4.6 mph
(SE 7 kph)
- 10SM
09:53
Clear
23°F / -5°C 10°F / -12°C 58% 30.51 in
(1033 mb)
E 6.9 mph
(E 11 kph)
- 10SM
08:53
Clear
19°F / -7°C 10°F / -12°C 68% 30.48 in
(1032 mb)
Calm - 10SM
07:53
Clear
12°F / -11°C 7°F / -14°C 79% 30.45 in
(1031 mb)
SW 3.5 mph
(SW 6 kph)
- 10SM
06:53
Clear
10°F / -12°C 5°F / -15°C 79% 30.42 in
(1030 mb)
Calm - 10SM
05:53
Clear
16°F / -9°C 7°F / -14°C 67% 30.42 in
(1030 mb)
Calm - 10SM
04:53
Clear
16°F / -9°C 7°F / -14°C 67% 30.39 in
(1029 mb)
NW 3.5 mph
(NW 6 kph)
- 10SM
03:53
Clear
18°F / -8°C 7°F / -14°C 62% 30.39 in
(1029 mb)
Calm - 10SM
02:53
Clear
18°F / -8°C 9°F / -13°C 68% 30.36 in
(1028 mb)
NNW 5.8 mph
(NNW 9 kph)
- 10SM
01:53
Clear
19°F / -7°C 10°F / -12°C 68% 30.33 in
(1027 mb)
NW 5.8 mph
(NW 9 kph)
- 10SM
00:53
Clear
21°F / -6°C 12°F / -11°C 68% 30.3 in
(1026 mb)
NW 6.9 mph
(NW 11 kph)
- 10SM
Time Weather Temperature Dewpoint Humidity Pressure Winds Precip Visibility


Weather for websites

WeatherForYou.com, LLC is not responsible for any damages or problems caused by this service. Current weather conditions are obtained from the closest station including government and personal stations which may have varying degrees of accuracy. Weather forecasts are derived from the NOAA NDFD. Like all things, this site belongs to Jesus Christ... He just trusts me to maintain it. If you have any questions or comments email webmaster@weatherforyou.com

Copyright © 2014, WeatherForYou.com LLC. All rights reserved.